カタログに戻る

CZ-4 DEB

運用中SSO
NORAD 26306·DEBRIS·🇨🇳 China

打ち上げ Oct 14, 1999 から Taiyuan Satellite Launch Center

Loading…

次のパス (今後24時間)

TLE

最新Source: Space-Track

元期: Sep 14, 2026, 09:17 UTC

1 26306U 99057GP  26257.38699253  .00000148  00000-0  61681-4 0  9993
2 26306  98.7357 307.0963 0094670 301.0942  69.0824 14.38237875386094

AllMySatでCZ-4 DEBをリアルタイム追跡

Download on the App Store